Voltar ao catálogo

STARLINK-38115

AtivoComunicaçõesSSO
NORAD 100111·PAYLOAD·🇺🇸 United States

Lançado Jul 21, 2026 de Vandenberg Space Force Base

Loading…

Próximas Passagens (próximas 24 horas)

TLE

AtualizadoSource: Space-Track

Época: Sep 14, 2026, 14:51 UTC

1 A0111U 26166L   26257.61878474  .00200784  00000-0  13157-2 0  9991
2 A0111  97.2824 275.6174 0002236  64.7819 295.3678 15.75188017  8671

Acompanhe STARLINK-38115 em tempo real com AllMySat

Download on the App Store